Weather WX

World > North America > United States > Alabama

Boys Ranch, Alabama Regional Weather

Lat: 32.09N, Lon: 87.02W
Wx Zone: ALZ040
Warning FLW WEATHER ALERT - (More Info. Click Here) Warning
Feedback

Boys Ranch, AL Regional Weather

Expires:201906192100;;746525
ASUS44 KBMX 192010
RWRAL 
             
ALABAMA REGIONAL WEATHER ROUNDUP
NATIONAL WEATHER SERVICE BIRMINGHAM AL
300 PM CDT WED JUN 19 2019

NOTE: "FAIR" INDICATES FEW OR NO CLOUDS BELOW 12,000 FEET
WITH NO SIGNIFICANT WEATHER AND/OR OBSTRUCTIONS TO VISIBILITY.

THE REMARK "TC" DENOTES TEMPERATURE IN DEGREES CELSIUS.


ALZ012-013-022-023-030>036-040>044-192100-
WEST CENTRAL ALABAMA
  
CITY           SKY/WX    TMP DP  RH WIND       PRES   REMARKS
TUSCALOOSA     FAIR      92  69  47 SW8       29.79F HX  97           
DEMOPOLIS      FAIR      88  70  55 SW5       29.81F HX  93           
$$
 

SKY/WX - Weather  TMP - Temperature  DP - Dew Point  RH - Relative Humidity
WIND - Wind Direction/Speed PRES - Barometric Pressure VSB - Visibility
WCI - Wind Chill Index E13G22 Wind - East Wind 13 mph/Gusts of 22 mph